Dades meteomassalio
Diari Summary for Juliol 29, 2017 Units:  Metric    English   Both
« Previous Day
Next Day »
Diari Semanal Mensual Anual Personalitzat
  Maxima: Minima: Mijana:
Temperatura: -17.8 °C -7.1 °C -2.8 °C
Rosada: -17.8 °C -9.1 °C -6.9 °C
Humitat: Humidity % 43 % 65 %
Velocitat del vent: 0 km/h 0 km/h 6.9 km/h
Racha vent: 0 km/h - -
Vent:- - East
Pressio: 0 hPa 34222.3 hPa -
Pluja: 0 mm    
Historical Graphs
 
 
Tabular Data for Juliol 29, 2017
Time Temperature Dew Point Pressure Wind Wind Speed Wind Gust Humidity Rainfall Rate (Hourly) solar Conditions
-17.8 °C -17.8 °C 0 hPa Calm     Humidity % 0 mm SolarRadiationWatts/m^2 W/m2 Conditions
00:04 -3.8 °C -7.1 °C 34327.3 hPa Calm     70 % 0 mm 0.0 W/m2 CLR
00:09 -3.9 °C -7.1 °C 34327.3 hPa Calm     70 % 0 mm 0.0 W/m2 CLR
00:14 -3.9 °C -7.1 °C 34327.3 hPa Calm     71 % 0 mm 0.0 W/m2 CLR
00:19 -4.1 °C -7.1 °C 34327.3 hPa Calm     72 % 0 mm 0.0 W/m2 CLR
00:24 -4.1 °C -7.1 °C 34327.3 hPa Calm     72 % 0 mm 0.0 W/m2 CLR
00:29 -4.1 °C -7.1 °C 34327.3 hPa Calm     72 % 0 mm 0.0 W/m2 CLR
00:34 -4.1 °C -7 °C 34327.3 hPa Calm     73 % 0 mm 0.0 W/m2 CLR
00:39 -4.2 °C -7.1 °C 34327.3 hPa Calm     73 % 0 mm 0.0 W/m2 CLR
00:44 -4.2 °C -6.9 °C 34327.3 hPa Calm     74 % 0 mm 0.0 W/m2 CLR
00:49 -4.3 °C -7 °C 34327.3 hPa Calm     74 % 0 mm 0.0 W/m2 CLR
00:59 -4.4 °C -6.9 °C 34327.3 hPa Calm     76 % 0 mm 0.0 W/m2 CLR
01:04 -4.4 °C -7.1 °C 34327.3 hPa Calm     75 % 0 mm 0.0 W/m2 CLR
01:09 -4.5 °C -7.3 °C 34327.3 hPa Calm     74 % 0 mm 0.0 W/m2 CLR
01:14 -4.6 °C -7.4 °C 34327.3 hPa Calm     73 % 0 mm 0.0 W/m2 CLR
01:19 -4.7 °C -7.6 °C 34327.3 hPa Calm     73 % 0 mm 0.0 W/m2 CLR
01:24 -4.8 °C -7.5 °C 34327.3 hPa Calm     74 % 0 mm 0.0 W/m2 CLR
01:29 -4.8 °C -7.6 °C 34327.3 hPa Calm     74 % 0 mm 0.0 W/m2 CLR
01:34 -4.9 °C -7.5 °C 34327.3 hPa Calm     75 % 0 mm 0.0 W/m2 CLR
01:39 -4.9 °C -7.4 °C 34313.7 hPa Calm     76 % 0 mm 0.0 W/m2 CLR
01:44 -4.9 °C -7.4 °C 34327.3 hPa Calm     76 % 0 mm 0.0 W/m2 CLR
01:49 -5 °C -7.4 °C 34327.3 hPa Calm     76 % 0 mm 0.0 W/m2 CLR
01:54 -5.1 °C -7.4 °C 34313.7 hPa Calm     77 % 0 mm 0.0 W/m2 CLR
01:59 -5.1 °C -7.4 °C 34327.3 hPa Calm     77 % 0 mm 0.0 W/m2 CLR
02:04 -5.2 °C -7.6 °C 34327.3 hPa Calm     77 % 0 mm 0.0 W/m2 CLR
02:09 -5.2 °C -7.5 °C 34327.3 hPa Calm     78 % 0 mm 0.0 W/m2 CLR
02:14 -5.3 °C -7.6 °C 34327.3 hPa Calm     78 % 0 mm 0.0 W/m2 CLR
02:19 -5.4 °C -7.4 °C 34327.3 hPa Calm     80 % 0 mm 0.0 W/m2 CLR
02:24 -5.3 °C -7.3 °C 34327.3 hPa Calm     81 % 0 mm 0.0 W/m2 CLR
02:29 -5.3 °C -7.3 °C 34327.3 hPa Calm     80 % 0 mm 0.0 W/m2 CLR
02:34 -5.4 °C -7.6 °C 34327.3 hPa Calm     78 % 0 mm 0.0 W/m2 CLR
02:39 -5.4 °C -7.6 °C 34337.4 hPa Calm     79 % 0 mm 0.0 W/m2 CLR
02:44 -5.5 °C -7.7 °C 34327.3 hPa Calm     78 % 0 mm 0.0 W/m2 CLR
02:49 -5.6 °C -7.7 °C 34327.3 hPa Calm     79 % 0 mm 0.0 W/m2 CLR
02:54 -5.6 °C -7.7 °C 34327.3 hPa Calm     79 % 0 mm 0.0 W/m2 CLR
02:59 -5.7 °C -7.7 °C 34327.3 hPa Calm     80 % 0 mm 0.0 W/m2 CLR
03:04 -5.7 °C -7.6 °C 34327.3 hPa Calm     81 % 0 mm 0.0 W/m2 CLR
03:09 -5.8 °C -7.7 °C 34327.3 hPa Calm     81 % 0 mm 0.0 W/m2 CLR
03:15 -5.9 °C -7.7 °C 34327.3 hPa Calm     82 % 0 mm 0.0 W/m2 CLR
03:20 -5.9 °C -7.6 °C 34327.3 hPa Calm     83 % 0 mm 0.0 W/m2 CLR
03:24 -5.9 °C -7.7 °C 34327.3 hPa Calm     82 % 0 mm 0.0 W/m2 CLR
03:29 -5.9 °C -7.6 °C 34327.3 hPa Calm     83 % 0 mm 0.0 W/m2 CLR
03:35 -6 °C -7.7 °C 34327.3 hPa Calm     83 % 0 mm 0.0 W/m2 CLR
03:40 -6 °C -7.6 °C 34327.3 hPa Calm     84 % 0 mm 0.0 W/m2 CLR
03:45 -6.1 °C -7.7 °C 34327.3 hPa Calm     83 % 0 mm 0.0 W/m2 CLR
03:50 -6.2 °C -7.9 °C 34327.3 hPa Calm     82 % 0 mm 0.0 W/m2 CLR
03:55 -6.2 °C -7.9 °C 34327.3 hPa Calm     82 % 0 mm 0.0 W/m2 CLR
04:00 -6.2 °C -7.9 °C 34327.3 hPa Calm     82 % 0 mm 0.0 W/m2 CLR
04:05 -6.3 °C -7.9 °C 34327.3 hPa Calm     83 % 0 mm 0.0 W/m2 CLR
04:10 -6.3 °C -7.9 °C 34327.3 hPa Calm     83 % 0 mm 0.0 W/m2 CLR
04:15 -6.3 °C -8 °C 34327.3 hPa Calm     83 % 0 mm 0.0 W/m2 CLR
04:20 -6.3 °C -8.1 °C 34327.3 hPa Calm     82 % 0 mm 0.0 W/m2 CLR
04:25 -6.3 °C -8.1 °C 34327.3 hPa Calm     82 % 0 mm 0.0 W/m2 CLR
04:30 -6.3 °C -8.1 °C 34327.3 hPa Calm     82 % 0 mm 0.0 W/m2 CLR
04:35 -6.4 °C -8.2 °C 34327.3 hPa Calm     82 % 0 mm 0.0 W/m2 CLR
04:40 -6.4 °C -8.1 °C 34327.3 hPa Calm     83 % 0 mm 0.0 W/m2 CLR
04:45 -6.4 °C -8.1 °C 34337.4 hPa Calm     83 % 0 mm 0.0 W/m2 CLR
04:50 -6.4 °C -8.1 °C 34337.4 hPa Calm     83 % 0 mm 0.0 W/m2 CLR
04:55 -6.4 °C -8.1 °C 34327.3 hPa Calm     83 % 0 mm 0.0 W/m2 CLR
05:00 -6.4 °C -8.1 °C 34327.3 hPa Calm     83 % 0 mm 0.0 W/m2 CLR
05:05 -6.4 °C -8.2 °C 34337.4 hPa Calm     82 % 0 mm 0.0 W/m2 CLR
05:10 -6.4 °C -8.2 °C 34327.3 hPa Calm     82 % 0 mm 0.0 W/m2 CLR
05:15 -6.4 °C -8.1 °C 34337.4 hPa Calm     83 % 0 mm 0.0 W/m2 CLR
05:20 -6.5 °C -8.2 °C 34337.4 hPa Calm     82 % 0 mm 0.0 W/m2 CLR
05:25 -6.5 °C -8.2 °C 34337.4 hPa Calm     82 % 0 mm 0.0 W/m2 CLR
05:30 -6.6 °C -8.3 °C 34337.4 hPa Calm     82 % 0 mm 0.0 W/m2 CLR
05:35 -6.6 °C -8.2 °C 34337.4 hPa Calm     83 % 0 mm 0.0 W/m2 CLR
05:40 -6.6 °C -8.3 °C 34337.4 hPa Calm     83 % 0 mm 0.0 W/m2 CLR
05:45 -6.7 °C -8.3 °C 34337.4 hPa Calm     83 % 0 mm 0.0 W/m2 CLR
05:50 -6.7 °C -8.2 °C 34337.4 hPa Calm     84 % 0 mm 0.0 W/m2 CLR
05:55 -6.7 °C -8.2 °C 34337.4 hPa Calm     85 % 0 mm 0.0 W/m2 CLR
06:00 -6.8 °C -8.2 °C 34337.4 hPa Calm     85 % 0 mm 0.0 W/m2 CLR
06:05 -6.8 °C -8.2 °C 34337.4 hPa Calm     86 % 0 mm 0.0 W/m2 CLR
06:10 -6.8 °C -8.2 °C 34337.4 hPa Calm     86 % 0 mm 0.0 W/m2 CLR
06:15 -6.8 °C -8.2 °C 34337.4 hPa Calm     86 % 0 mm 0.0 W/m2 CLR
06:20 -6.9 °C -8.2 °C 34337.4 hPa Calm     86 % 0 mm 0.0 W/m2 CLR
06:25 -6.9 °C -8.2 °C 34337.4 hPa Calm     86 % 0 mm 0.0 W/m2 CLR
06:30 -6.9 °C -8.2 °C 34337.4 hPa Calm     86 % 0 mm 0.0 W/m2 CLR
06:35 -6.9 °C -8.3 °C 34337.4 hPa Calm     86 % 0 mm 0.0 W/m2 CLR
06:40 -7 °C -8.3 °C 34347.6 hPa Calm     86 % 0 mm 0.0 W/m2 CLR
06:45 -7.1 °C -8.4 °C 34347.6 hPa Calm     86 % 0 mm 0.0 W/m2 OVC
06:50 -7.1 °C -8.4 °C 34347.6 hPa Calm     86 % 0 mm 0.0 W/m2 OVC
06:55 -7.1 °C -8.5 °C 34347.6 hPa Calm     85 % 0 mm 0.0 W/m2 OVC
07:00 -7.1 °C -8.4 °C 34347.6 hPa Calm     86 % 0 mm 7.0 W/m2 BKN
07:05 -7.1 °C -8.4 °C 34347.6 hPa Calm     86 % 0 mm 11.0 W/m2 BKN
07:10 -7.1 °C -8.3 °C 34347.6 hPa Calm     87 % 0 mm 12.0 W/m2 BKN
07:15 -7.1 °C -8.3 °C 34347.6 hPa Calm     87 % 0 mm 16.0 W/m2 BKN
07:17 -7.1 °C -8.3 °C 34347.6 hPa Calm     87 % 0 mm 18.0 W/m2 BKN
07:22 -7.1 °C -8.3 °C 34347.6 hPa Calm     87 % 0 mm 23.0 W/m2 BKN
07:27 -7.1 °C -8.3 °C 34347.6 hPa Calm     87 % 0 mm 28.0 W/m2 BKN
07:32 -7 °C -8.2 °C 34347.6 hPa Calm     87 % 0 mm 33.0 W/m2 BKN
07:42 -6.9 °C -8.3 °C 34361.1 hPa Calm     86 % 0 mm 53.0 W/m2 SCT
07:47 -6.8 °C -8.2 °C 34361.1 hPa Calm     86 % 0 mm 62.0 W/m2 SCT
07:52 -6.8 °C -8.2 °C 34361.1 hPa Calm     85 % 0 mm 70.0 W/m2 FEW
07:57 -6.6 °C -8.2 °C 34361.1 hPa Calm     84 % 0 mm 83.0 W/m2 FEW
08:02 -6.5 °C -8 °C 34361.1 hPa Calm     84 % 0 mm 98.0 W/m2 FEW
08:07 -6.3 °C -8 °C 34361.1 hPa Calm     83 % 0 mm 113.0 W/m2 CLR
08:12 -6.2 °C -7.9 °C 34361.1 hPa Calm     83 % 0 mm 127.0 W/m2 CLR
08:17 -6 °C -7.9 °C 34361.1 hPa Calm     81 % 0 mm 141.0 W/m2 CLR
08:22 -5.8 °C -7.7 °C 34361.1 hPa Calm     81 % 0 mm 160.0 W/m2 CLR
08:27 -5.6 °C -7.6 °C 34361.1 hPa Calm     80 % 0 mm 176.0 W/m2 CLR
08:32 -5.3 °C -7.4 °C 34361.1 hPa Calm     79 % 0 mm 190.0 W/m2 CLR
08:37 -5.2 °C -7.4 °C 34361.1 hPa Calm     78 % 0 mm 206.0 W/m2 CLR
08:42 -5 °C -7.4 °C 34361.1 hPa Calm     77 % 0 mm 220.0 W/m2 CLR
08:47 -4.8 °C -7.3 °C 34361.1 hPa Calm     76 % 0 mm 239.0 W/m2 CLR
08:52 -4.7 °C -7.2 °C 34361.1 hPa Calm     76 % 0 mm 257.0 W/m2 CLR
08:57 -4.5 °C -7.3 °C 34361.1 hPa Calm     74 % 0 mm 272.0 W/m2 CLR
09:02 -4.2 °C -7 °C 34361.1 hPa Calm     74 % 0 mm 288.0 W/m2 CLR
09:07 -3.9 °C -6.8 °C 34361.1 hPa Calm     73 % 0 mm 308.0 W/m2 CLR
09:12 -3.7 °C -6.8 °C 34371.3 hPa Calm     71 % 0 mm 322.0 W/m2 CLR
09:17 -3.5 °C -6.8 °C 34361.1 hPa Calm     70 % 0 mm 336.0 W/m2 CLR
09:22 -3.4 °C -6.7 °C 34361.1 hPa Calm     70 % 0 mm 352.0 W/m2 CLR
09:27 -3.3 °C -6.7 °C 34361.1 hPa Calm     69 % 0 mm 367.0 W/m2 CLR
09:32 -3.2 °C -6.6 °C 34361.1 hPa Calm     69 % 0 mm 383.0 W/m2 CLR
09:42 -3.1 °C -8.2 °C 34361.1 hPa Calm     57 % 0 mm 413.0 W/m2 CLR
09:47 -3 °C -9.1 °C 34361.1 hPa Calm     51 % 0 mm 431.0 W/m2 CLR
09:49 -2.9 °C -8.7 °C 34371.3 hPa Calm     53 % 0 mm 350.0 W/m2 CLR
09:54 -2.7 °C -8.4 °C 34371.3 hPa Calm     53 % 0 mm 102.0 W/m2 CLR
09:59 -2.4 °C -8.4 °C 34371.3 hPa Calm     52 % 0 mm 471.0 W/m2 CLR
10:04 -2.4 °C -8.1 °C 34371.3 hPa Calm     54 % 0 mm 483.0 W/m2 CLR
10:09 -2.4 °C -8.7 °C 34371.3 hPa NNE 6 km/h 6 km/h 50 % 0 mm 499.0 W/m2 CLR
10:14 -2.3 °C -8.4 °C 34371.3 hPa Calm   0.3 km/h 51 % 0 mm 512.0 W/m2 CLR
10:19 -2.3 °C -8.6 °C 34371.3 hPa Calm     50 % 0 mm 526.0 W/m2 CLR
10:24 -2.2 °C -8.4 °C 34371.3 hPa ENE 9 km/h 9 km/h 51 % 0 mm 541.0 W/m2 CLR
10:30 -2.2 °C -8.7 °C 34371.3 hPa Calm     49 % 0 mm 555.0 W/m2 CLR
10:34 -2.2 °C -8.7 °C 34371.3 hPa East 3.1 km/h 3.1 km/h 49 % 0 mm 566.0 W/m2 CLR
10:40 -2.1 °C -8.8 °C 34371.3 hPa Calm   1.3 km/h 48 % 0 mm 582.0 W/m2 CLR
10:45 -2 °C -8.8 °C 34371.3 hPa Calm     47 % 0 mm 592.0 W/m2 CLR
10:50 -1.8 °C -8.6 °C 34361.1 hPa East 3.1 km/h   48 % 0 mm 612.0 W/m2 CLR
10:55 -1.8 °C -8 °C 34361.1 hPa ENE 9 km/h 9 km/h 51 % 0 mm 622.0 W/m2 CLR
11:00 -1.9 °C -7.8 °C 34361.1 hPa ENE 11.9 km/h 11.9 km/h 53 % 0 mm 636.0 W/m2 CLR
11:05 -1.9 °C -7.8 °C 34361.1 hPa Calm     53 % 0 mm 647.0 W/m2 CLR
11:10 -1.8 °C -7.6 °C 34361.1 hPa NNE 3.1 km/h   53 % 0 mm 663.0 W/m2 CLR
11:15 -1.6 °C -7.7 °C 34361.1 hPa NNW 9 km/h   52 % 0 mm 670.0 W/m2 CLR
11:20 -1.6 °C -7.4 °C 34361.1 hPa NE 6 km/h 6 km/h 53 % 0 mm 680.0 W/m2 CLR
11:25 -1.5 °C -7.6 °C 34361.1 hPa Calm     52 % 0 mm 691.0 W/m2 CLR
11:26 -1.6 °C -7.4 °C 34361.1 hPa NNE 3.1 km/h 3.1 km/h 53 % 0 mm 696.0 W/m2 CLR
11:31 -1.6 °C -7.3 °C 34361.1 hPa Calm     54 % 0 mm 705.0 W/m2 CLR
11:36 -1.6 °C -7.1 °C 34361.1 hPa East 11.9 km/h 11.9 km/h 55 % 0 mm 715.0 W/m2 CLR
11:41 -1.5 °C -7.1 °C 34361.1 hPa ENE 15.6 km/h 15.6 km/h 55 % 0 mm 722.0 W/m2 CLR
11:46 -1.5 °C -7.2 °C 34361.1 hPa ESE 9 km/h 9 km/h 54 % 0 mm 738.0 W/m2 CLR
11:51 -1.5 °C -6.8 °C 34361.1 hPa Calm     56 % 0 mm 745.0 W/m2 CLR
11:56 -1.2 °C -6.9 °C 34361.1 hPa NE 9 km/h 9 km/h 54 % 0 mm 754.0 W/m2 CLR
12:01 -1 °C -6.9 °C 34347.6 hPa Calm     53 % 0 mm 766.0 W/m2 CLR
12:06 -0.9 °C -7 °C 34347.6 hPa NE 20.9 km/h 20.9 km/h 52 % 0 mm 772.0 W/m2 CLR
12:11 -1 °C -7.1 °C 34347.6 hPa Calm     52 % 0 mm 784.0 W/m2 CLR
12:16 -1 °C -7.1 °C 34347.6 hPa Calm     52 % 0 mm 793.0 W/m2 CLR
12:21 -0.8 °C -6.8 °C 34347.6 hPa ENE 17.9 km/h 17.9 km/h 53 % 0 mm 803.0 W/m2 CLR
12:26 -0.8 °C -6.7 °C 34337.4 hPa North 9 km/h 9 km/h 53 % 0 mm 810.0 W/m2 CLR
12:31 -0.7 °C -6.4 °C 34337.4 hPa North 6 km/h 6 km/h 54 % 0 mm 817.0 W/m2 CLR
12:36 -0.7 °C -6.6 °C 34337.4 hPa North 11.9 km/h 11.9 km/h 53 % 0 mm 824.0 W/m2 CLR
12:41 -0.7 °C -6.6 °C 34337.4 hPa NNE 15 km/h 15 km/h 53 % 0 mm 833.0 W/m2 CLR
12:46 -0.5 °C -6.3 °C 34327.3 hPa NE 11.9 km/h 11.9 km/h 54 % 0 mm 838.0 W/m2 CLR
12:51 -0.4 °C -6.3 °C 34327.3 hPa ENE 15 km/h 15 km/h 53 % 0 mm 844.0 W/m2 CLR
12:56 -0.4 °C -6.4 °C 34327.3 hPa NNE 9 km/h 9 km/h 53 % 0 mm 851.0 W/m2 CLR
13:01 -0.3 °C -6.3 °C 34327.3 hPa ENE 9 km/h 9 km/h 53 % 0 mm 860.0 W/m2 CLR
13:06 -0.2 °C -6.4 °C 34327.3 hPa NW 9 km/h 9 km/h 52 % 0 mm 863.0 W/m2 CLR
13:11 -0.2 °C -6.3 °C 34313.7 hPa ENE 15 km/h 15 km/h 52 % 0 mm 867.0 W/m2 CLR
13:16 -0.1 °C -6.2 °C 34313.7 hPa Calm     52 % 0 mm 874.0 W/m2 CLR
13:21 0.1 °C -6.2 °C 34313.7 hPa Calm     51 % 0 mm 879.0 W/m2 CLR
13:22 0.2 °C -6.3 °C 34313.7 hPa ENE 7.7 km/h 7.7 km/h 50 % 0 mm 881.0 W/m2 CLR
13:27 0.3 °C -6.4 °C 34313.7 hPa ENE 17.9 km/h 17.9 km/h 49 % 0 mm 884.0 W/m2 CLR
13:32 0.3 °C -6.6 °C 34313.7 hPa ENE 9 km/h 9 km/h 48 % 0 mm 886.0 W/m2 CLR
13:37 0.4 °C -6.3 °C 34303.6 hPa NE 20.9 km/h 20.9 km/h 49 % 0 mm 889.0 W/m2 CLR
13:42 0.6 °C -6.3 °C 34303.6 hPa NE 20.9 km/h 20.9 km/h 48 % 0 mm 891.0 W/m2 CLR
13:47 0.7 °C -6.5 °C 34303.6 hPa NE 17.9 km/h 17.9 km/h 47 % 0 mm 891.0 W/m2 CLR
13:52 0.7 °C -6.5 °C 34303.6 hPa East 11.9 km/h 11.9 km/h 47 % 0 mm 893.0 W/m2 CLR
13:57 0.6 °C -6.5 °C 34303.6 hPa ENE 20.8 km/h 20.8 km/h 47 % 0 mm 895.0 W/m2 CLR
14:02 0.6 °C -6.5 °C 34303.6 hPa NE 9 km/h 9 km/h 47 % 0 mm 896.0 W/m2 CLR
14:07 0.8 °C -6.1 °C 34293.4 hPa NE 15 km/h 15 km/h 48 % 0 mm 893.0 W/m2 CLR
14:12 0.9 °C -6.2 °C 34303.6 hPa Calm     47 % 0 mm 895.0 W/m2 CLR
14:17 1.2 °C -6.3 °C 34293.4 hPa North 23.8 km/h 23.8 km/h 45 % 0 mm 895.0 W/m2 CLR
14:22 1.2 °C -6.4 °C 34293.4 hPa North 3.1 km/h 3.1 km/h 45 % 0 mm 891.0 W/m2 CLR
14:27 1.2 °C -6.3 °C 34293.4 hPa Calm   0.8 km/h 45 % 0 mm 886.0 W/m2 CLR
14:32 1.3 °C -6.7 °C 34293.4 hPa NE 20.9 km/h 20.9 km/h 43 % 0 mm 888.0 W/m2 CLR
14:37 1.3 °C -6.5 °C 34279.9 hPa NE 9 km/h 9 km/h 44 % 0 mm 888.0 W/m2 CLR
14:42 1.3 °C -6.6 °C 34279.9 hPa ENE 17.9 km/h 17.9 km/h 43 % 0 mm 884.0 W/m2 CLR
14:47 1.3 °C -6.4 °C 34279.9 hPa East 26.9 km/h 26.9 km/h 44 % 0 mm 879.0 W/m2 CLR
14:52 1.3 °C -6.5 °C 34279.9 hPa Calm     44 % 0 mm 875.0 W/m2 CLR
14:57 1.2 °C -6.3 °C 34279.9 hPa SE 15 km/h 15 km/h 45 % 0 mm 872.0 W/m2 CLR
14:58 1.2 °C -6.3 °C 34269.7 hPa ENE 17.9 km/h 17.9 km/h 45 % 0 mm 870.0 W/m2 CLR
15:03 1.3 °C -5.9 °C 34269.7 hPa ESE 26.9 km/h 26.9 km/h 47 % 0 mm 867.0 W/m2 CLR
15:08 1.2 °C -5.9 °C 34269.7 hPa East 29.8 km/h 29.8 km/h 47 % 0 mm 868.0 W/m2 CLR
15:13 1.1 °C -6.1 °C 34269.7 hPa NNE 17.9 km/h 17.9 km/h 47 % 0 mm 837.0 W/m2 CLR
15:18 1.1 °C -6.1 °C 34269.7 hPa NE 3.1 km/h 3.1 km/h 47 % 0 mm 884.0 W/m2 CLR
15:23 1.2 °C -5.8 °C 34269.7 hPa East 23.8 km/h 23.8 km/h 48 % 0 mm 824.0 W/m2 CLR
15:28 1.2 °C -5.8 °C 34269.7 hPa East 29.8 km/h 29.8 km/h 48 % 0 mm 821.0 W/m2 CLR
15:33 1.2 °C -5.6 °C 34269.7 hPa East 29.8 km/h 29.8 km/h 49 % 0 mm 872.0 W/m2 CLR
15:38 1.1 °C -5.7 °C 34269.7 hPa ENE 23.8 km/h 23.8 km/h 49 % 0 mm 874.0 W/m2 CLR
15:44 1.3 °C -5.7 °C 34269.7 hPa East 17.9 km/h 17.9 km/h 48 % 0 mm 849.0 W/m2 CLR
15:54 1.2 °C -5.6 °C 34256.2 hPa ENE 29.8 km/h 29.8 km/h 49 % 0 mm 807.0 W/m2 CLR
15:59 1.2 °C -5.6 °C 34256.2 hPa East 29.8 km/h 29.8 km/h 49 % 0 mm 824.0 W/m2 CLR
16:04 1.2 °C -5.4 °C 34256.2 hPa ENE 29.8 km/h 29.8 km/h 50 % 0 mm 807.0 W/m2 CLR
16:14 1.1 °C -5.3 °C 34256.2 hPa East 33.6 km/h 33.6 km/h 51 % 0 mm 812.0 W/m2 CLR
16:19 0.9 °C -5.4 °C 34256.2 hPa ESE 23.3 km/h 23.3 km/h 51 % 0 mm 779.0 W/m2 CLR
16:24 0.9 °C -5.3 °C 34256.2 hPa SE 32.8 km/h 32.8 km/h 52 % 0 mm 756.0 W/m2 CLR
16:29 0.9 °C -5.3 °C 34256.2 hPa ESE 23.8 km/h 23.8 km/h 52 % 0 mm 738.0 W/m2 CLR
16:34 0.8 °C -5.4 °C 34256.2 hPa ESE 29.8 km/h 29.8 km/h 52 % 0 mm 724.0 W/m2 CLR
16:39 0.9 °C -5.4 °C 34256.2 hPa SE 29.8 km/h 29.8 km/h 51 % 0 mm 712.0 W/m2 CLR
16:44 0.9 °C -5.7 °C 34246 hPa East 29.8 km/h 29.8 km/h 50 % 0 mm 703.0 W/m2 CLR
16:49 0.9 °C -5.7 °C 34256.2 hPa ESE 25.9 km/h 25.9 km/h 50 % 0 mm 694.0 W/m2 CLR
16:54 0.9 °C -5.7 °C 34246 hPa ESE 17.9 km/h 17.9 km/h 50 % 0 mm 679.0 W/m2 CLR
16:59 1.1 °C -5.7 °C 34246 hPa ESE 26.9 km/h 26.9 km/h 49 % 0 mm 671.0 W/m2 CLR
17:09 1.3 °C -5.9 °C 34246 hPa ESE 26.9 km/h 26.9 km/h 47 % 0 mm 656.0 W/m2 CLR
17:14 1.2 °C -5.6 °C 34246 hPa East 23.3 km/h 23.3 km/h 49 % 0 mm 659.0 W/m2 CLR
17:19 1.1 °C -5.7 °C 34246 hPa East 23.8 km/h 23.8 km/h 49 % 0 mm 190.0 W/m2 CLR
17:24 0.9 °C -5.7 °C 34246 hPa East 26.9 km/h 26.9 km/h 50 % 0 mm 698.0 W/m2 CLR
17:29 1 °C -5.8 °C 34246 hPa SE 23.8 km/h 23.8 km/h 49 % 0 mm 670.0 W/m2 CLR
17:34 0.9 °C -5.7 °C 34235.8 hPa East 26.9 km/h 26.9 km/h 50 % 0 mm 214.0 W/m2 CLR
17:39 0.9 °C -5.6 °C 34235.8 hPa East 26.9 km/h 26.9 km/h 51 % 0 mm 232.0 W/m2 CLR
17:44 0.8 °C -5.6 °C 34235.8 hPa East 23.3 km/h 23.3 km/h 51 % 0 mm 283.0 W/m2 CLR
17:49 0.7 °C -5.4 °C 34235.8 hPa ESE 17.9 km/h 17.9 km/h 52 % 0 mm 278.0 W/m2 CLR
17:54 0.8 °C -5.4 °C 34246 hPa ESE 23.3 km/h 23.3 km/h 52 % 0 mm 271.0 W/m2 CLR
17:59 0.7 °C -5.9 °C 34235.8 hPa SE 29.8 km/h 29.8 km/h 50 % 0 mm 323.0 W/m2 CLR
18:04 0.7 °C -6.1 °C 34235.8 hPa SE 29.8 km/h 29.8 km/h 49 % 0 mm 278.0 W/m2 CLR
18:14 0.5 °C -5.7 °C 34235.8 hPa ESE 29.8 km/h 29.8 km/h 52 % 0 mm 274.0 W/m2 CLR
18:19 0.4 °C -5.8 °C 34235.8 hPa ESE 20.9 km/h 20.9 km/h 52 % 0 mm 202.0 W/m2 CLR
18:24 0.3 °C -5.9 °C 34235.8 hPa East 20.9 km/h 20.9 km/h 52 % 0 mm 225.0 W/m2 CLR
18:29 0.3 °C -5.7 °C 34235.8 hPa East 23.8 km/h 23.8 km/h 53 % 0 mm 336.0 W/m2 CLR
18:34 0.3 °C -5.7 °C 34235.8 hPa East 18.2 km/h 18.2 km/h 53 % 0 mm 139.0 W/m2 CLR
18:39 0.2 °C -5.8 °C 34235.8 hPa ESE 26.9 km/h 26.9 km/h 53 % 0 mm 146.0 W/m2 CLR
18:44 0.1 °C -5.7 °C 34235.8 hPa East 17.9 km/h 17.9 km/h 54 % 0 mm 146.0 W/m2 CLR
18:49 0.1 °C -5.6 °C 34222.3 hPa ESE 17.9 km/h 17.9 km/h 55 % 0 mm 174.0 W/m2 CLR
18:50 0.1 °C -5.6 °C 34222.3 hPa East 17.9 km/h 17.9 km/h 55 % 0 mm 153.0 W/m2 CLR
18:55 -0.1 °C -5.7 °C 34222.3 hPa East 17.9 km/h 17.9 km/h 55 % 0 mm 153.0 W/m2 CLR
19:00 -0.2 °C -5.8 °C 34222.3 hPa ESE 23.8 km/h 23.8 km/h 55 % 0 mm 153.0 W/m2 CLR
19:05 -0.2 °C -5.7 °C 34222.3 hPa ESE 20.9 km/h 20.9 km/h 56 % 0 mm 144.0 W/m2 CLR
19:10 -0.2 °C -5.7 °C 34222.3 hPa SE 29.8 km/h 29.8 km/h 56 % 0 mm 334.0 W/m2 CLR
19:15 -0.3 °C -5.7 °C 34222.3 hPa ESE 29.8 km/h 29.8 km/h 56 % 0 mm 336.0 W/m2 CLR
19:20 -0.2 °C -5.7 °C 34222.3 hPa ESE 32.8 km/h 32.8 km/h 56 % 0 mm 327.0 W/m2 CLR
19:25 -0.3 °C -5.6 °C 34222.3 hPa ESE 25.9 km/h 25.9 km/h 57 % 0 mm 306.0 W/m2 CLR
19:30 -0.3 °C -5.7 °C 34222.3 hPa ESE 20.9 km/h 20.9 km/h 57 % 0 mm 262.0 W/m2 CLR
19:35 -0.3 °C -5.7 °C 34222.3 hPa ESE 26.9 km/h 26.9 km/h 57 % 0 mm 243.0 W/m2 CLR
19:40 -0.3 °C -5.7 °C 34222.3 hPa SE 17.9 km/h 17.9 km/h 57 % 0 mm 83.0 W/m2 CLR
19:45 -0.4 °C -5.6 °C 34235.8 hPa East 9 km/h 9.3 km/h 58 % 0 mm 70.0 W/m2 CLR
19:50 -0.5 °C -5.6 °C 34235.8 hPa ENE 12.9 km/h 12.9 km/h 58 % 0 mm 69.0 W/m2 CLR
19:55 -0.6 °C -5.5 °C 34222.3 hPa East 9 km/h 9 km/h 59 % 0 mm 148.0 W/m2 FEW
20:00 -0.6 °C -5.6 °C 34222.3 hPa East 11.9 km/h 11.9 km/h 59 % 0 mm 149.0 W/m2 CLR
20:05 -0.6 °C -5.4 °C 34222.3 hPa Calm   0.8 km/h 60 % 0 mm 160.0 W/m2 CLR
20:10 -0.6 °C -5.6 °C 34222.3 hPa ENE 10.3 km/h 10.3 km/h 59 % 0 mm 144.0 W/m2 CLR
20:15 -0.6 °C -5.4 °C 34222.3 hPa ENE 9 km/h 9 km/h 60 % 0 mm 130.0 W/m2 CLR
20:20 -0.7 °C -5.5 °C 34222.3 hPa NNE 9 km/h   60 % 0 mm 113.0 W/m2 CLR
20:25 -0.7 °C -5.5 °C 34222.3 hPa ENE 6 km/h 7.2 km/h 60 % 0 mm 98.0 W/m2 CLR
20:30 -0.7 °C -5.6 °C 34222.3 hPa NE 15 km/h 15 km/h 60 % 0 mm 83.0 W/m2 FEW
20:35 -0.8 °C -5.5 °C 34222.3 hPa NE 11.9 km/h   61 % 0 mm 56.0 W/m2 SCT
20:40 -0.9 °C -5.6 °C 34235.8 hPa Calm     61 % 0 mm 40.0 W/m2 BKN
20:45 -1.1 °C -5.6 °C 34235.8 hPa Calm     62 % 0 mm 33.0 W/m2 BKN
20:50 -1.1 °C -5.6 °C 34235.8 hPa Calm     62 % 0 mm 25.0 W/m2 BKN
20:55 -1.2 °C -5.5 °C 34235.8 hPa Calm     63 % 0 mm 19.0 W/m2 BKN
21:00 -1.3 °C -5.7 °C 34235.8 hPa Calm     63 % 0 mm 14.0 W/m2 BKN
21:05 -1.4 °C -5.8 °C 34246 hPa Calm     63 % 0 mm 11.0 W/m2 BKN
21:10 -1.6 °C -5.7 °C 34246 hPa Calm     64 % 0 mm 7.0 W/m2 BKN
21:15 -1.6 °C -5.7 °C 34246 hPa Calm     65 % 0 mm 5.0 W/m2 OVC
21:20 -1.8 °C -5.8 °C 34246 hPa Calm     65 % 0 mm 0.0 W/m2 OVC
21:25 -1.9 °C -5.8 °C 34246 hPa NE 7.7 km/h 7.7 km/h 66 % 0 mm 0.0 W/m2 OVC
21:30 -2.1 °C -5.8 °C 34246 hPa ENE 11.9 km/h 11.9 km/h 67 % 0 mm 0.0 W/m2 CLR
21:35 -2.2 °C -5.9 °C 34246 hPa Calm     67 % 0 mm 0.0 W/m2 CLR
21:41 -2.3 °C -5.9 °C 34256.2 hPa NE 12.9 km/h 12.9 km/h 68 % 0 mm 0.0 W/m2 CLR
21:46 -2.3 °C -5.9 °C 34256.2 hPa NE 3.1 km/h   68 % 0 mm 0.0 W/m2 CLR
21:51 -2.4 °C -5.8 °C 34256.2 hPa Calm     69 % 0 mm 0.0 W/m2 CLR
21:56 -2.4 °C -5.9 °C 34256.2 hPa Calm     69 % 0 mm 0.0 W/m2 CLR
22:01 -2.5 °C -5.9 °C 34256.2 hPa Calm     69 % 0 mm 0.0 W/m2 CLR
22:06 -2.6 °C -6 °C 34256.2 hPa Calm     69 % 0 mm 0.0 W/m2 CLR
22:11 -2.6 °C -5.9 °C 34256.2 hPa Calm     70 % 0 mm 0.0 W/m2 CLR
22:16 -2.6 °C -5.9 °C 34256.2 hPa Calm     70 % 0 mm 0.0 W/m2 CLR
22:21 -2.7 °C -5.9 °C 34256.2 hPa Calm     70 % 0 mm 0.0 W/m2 CLR
22:26 -2.7 °C -6 °C 34256.2 hPa Calm     70 % 0 mm 0.0 W/m2 CLR
22:31 -2.8 °C -5.9 °C 34256.2 hPa Calm     71 % 0 mm 0.0 W/m2 CLR
22:36 -2.8 °C -6 °C 34256.2 hPa Calm     71 % 0 mm 0.0 W/m2 CLR
22:41 -2.9 °C -6.1 °C 34256.2 hPa Calm     71 % 0 mm 0.0 W/m2 CLR
22:46 -2.9 °C -5.9 °C 34256.2 hPa Calm     72 % 0 mm 0.0 W/m2 CLR
22:51 -2.9 °C -5.9 °C 34256.2 hPa Calm     72 % 0 mm 0.0 W/m2 CLR
22:56 -2.9 °C -6.1 °C 34256.2 hPa Calm     71 % 0 mm 0.0 W/m2 CLR
23:01 -2.8 °C -6 °C 34256.2 hPa Calm     71 % 0 mm 0.0 W/m2 CLR
23:06 -2.9 °C -6.1 °C 34256.2 hPa Calm     71 % 0 mm 0.0 W/m2 CLR
23:11 -3 °C -6 °C 34256.2 hPa Calm     72 % 0 mm 0.0 W/m2 CLR
23:16 -3.1 °C -6.1 °C 34256.2 hPa Calm     72 % 0 mm 0.0 W/m2 CLR
23:21 -3.1 °C -6 °C 34256.2 hPa ENE 3.1 km/h   73 % 0 mm 0.0 W/m2 CLR
23:26 -3.1 °C -6 °C 34256.2 hPa Calm     73 % 0 mm 0.0 W/m2 CLR
23:31 -3.2 °C -6.1 °C 34246 hPa Calm     73 % 0 mm 0.0 W/m2 CLR
23:36 -3.2 °C -6.1 °C 34256.2 hPa Calm     73 % 0 mm 0.0 W/m2 CLR
23:41 -3.3 °C -6.1 °C 34256.2 hPa Calm     74 % 0 mm 0.0 W/m2 CLR
23:46 -3.3 °C -6.1 °C 34256.2 hPa Calm     74 % 0 mm 0.0 W/m2 CLR
23:51 -3.3 °C -6.2 °C 34256.2 hPa Calm     73 % 0 mm 0.0 W/m2 CLR
23:56 -3.2 °C -6.2 °C 34256.2 hPa Calm     73 % 0 mm 0.0 W/m2 CLR
Lo Temps de Massalio
Compliments of Weather Underground - 1.25 mb